AMX27LB MMMX-MMOX

Flight info

Callsign AMX27LB
Flight time N/A
Altitude 29000
Route TEVOS2B TEVOS UT113 OAX
Aircraft B38M/M-SDE1FGHILORVWXY/HB1

Departure

Time N/A
Airport Mexico City Benito Juárez International Airport (MMMX)

Arrival

Time 2026-04-22 10:43
Airport Xoxocotlán International Airport (MMOX)
Time Latitude Longitude Altitude Speed Heading
2026-04-22 10:19 18.51506 -98.39556 21477 ft 468 kts 135°
2026-04-22 10:19 18.49165 -98.37171 21659 ft 470 kts 135°
2026-04-22 10:19 18.46810 -98.34774 21832 ft 471 kts 135°
2026-04-22 10:20 18.44449 -98.32370 21941 ft 475 kts 135°
2026-04-22 10:20 18.42059 -98.29939 22089 ft 477 kts 135°
2026-04-22 10:20 18.39668 -98.27508 22271 ft 479 kts 135°
2026-04-22 10:20 18.37264 -98.25063 22420 ft 481 kts 135°
2026-04-22 10:21 18.34850 -98.22610 22601 ft 482 kts 135°
2026-04-22 10:21 18.32427 -98.20149 22761 ft 484 kts 135°
2026-04-22 10:21 18.30000 -98.17686 22934 ft 486 kts 135°
2026-04-22 10:21 18.27561 -98.15211 23098 ft 487 kts 135°
2026-04-22 10:22 18.25120 -98.12734 23292 ft 488 kts 135°
2026-04-22 10:22 18.22683 -98.10276 23840 ft 476 kts 136°
2026-04-22 10:22 18.20302 -98.07860 24111 ft 477 kts 135°
2026-04-22 10:22 18.17931 -98.05449 24025 ft 484 kts 135°
2026-04-22 10:23 18.15508 -98.02993 24257 ft 483 kts 135°
2026-04-22 10:23 18.13081 -98.00537 24349 ft 485 kts 135°
2026-04-22 10:23 18.10642 -97.98068 24486 ft 486 kts 136°
2026-04-22 10:23 18.08204 -97.95602 24652 ft 486 kts 136°
2026-04-22 10:24 18.05783 -97.93153 24920 ft 484 kts 136°
2026-04-22 10:24 18.03348 -97.90692 25032 ft 484 kts 136°
2026-04-22 10:24 18.00912 -97.88231 25080 ft 486 kts 136°
2026-04-22 10:24 17.98478 -97.85773 25087 ft 485 kts 136°
2026-04-22 10:25 17.96049 -97.83321 25086 ft 485 kts 136°
2026-04-22 10:25 17.93643 -97.80893 25086 ft 486 kts 136°
2026-04-22 10:25 17.91204 -97.78433 25087 ft 486 kts 136°
2026-04-22 10:25 17.88767 -97.75975 25088 ft 485 kts 136°
2026-04-22 10:26 17.86335 -97.73523 25113 ft 484 kts 136°
2026-04-22 10:26 17.83898 -97.71068 25114 ft 485 kts 136°
2026-04-22 10:26 17.81485 -97.68638 25114 ft 485 kts 136°
2026-04-22 10:26 17.79049 -97.66185 25115 ft 485 kts 136°
2026-04-22 10:27 17.76612 -97.63733 25109 ft 485 kts 136°
2026-04-22 10:27 17.74157 -97.61263 25110 ft 486 kts 136°
2026-04-22 10:27 17.71717 -97.58810 25132 ft 485 kts 136°
2026-04-22 10:27 17.69276 -97.56357 25120 ft 487 kts 136°
2026-04-22 10:28 17.66852 -97.53921 25128 ft 490 kts 136°
2026-04-22 10:28 17.64388 -97.51446 25127 ft 491 kts 136°
2026-04-22 10:28 17.61922 -97.48970 25131 ft 491 kts 136°
2026-04-22 10:28 17.59454 -97.46494 25127 ft 491 kts 136°
2026-04-22 10:29 17.56975 -97.44006 25133 ft 491 kts 136°
2026-04-22 10:29 17.54504 -97.41529 25132 ft 491 kts 136°
2026-04-22 10:29 17.52036 -97.39056 25131 ft 491 kts 136°
2026-04-22 10:29 17.49572 -97.36587 25134 ft 491 kts 136°
2026-04-22 10:30 17.47103 -97.34113 25130 ft 491 kts 136°
2026-04-22 10:30 17.44635 -97.31642 25134 ft 490 kts 136°
2026-04-22 10:30 17.42138 -97.29306 24906 ft 482 kts 142°
2026-04-22 10:30 17.39270 -97.27504 24308 ft 478 kts 156°
2026-04-22 10:31 17.36199 -97.26226 23789 ft 473 kts 157°
2026-04-22 10:31 17.33160 -97.24914 23092 ft 470 kts 156°
2026-04-22 10:31 17.30157 -97.23593 22482 ft 466 kts 156°
2026-04-22 10:31 17.27181 -97.22270 21838 ft 463 kts 156°
2026-04-22 10:32 17.24232 -97.20954 21236 ft 460 kts 156°
2026-04-22 10:32 17.21304 -97.19647 20631 ft 457 kts 156°
2026-04-22 10:32 17.18386 -97.18344 20048 ft 454 kts 156°
2026-04-22 10:32 17.15484 -97.17048 19484 ft 451 kts 156°
2026-04-22 10:33 17.12595 -97.15759 18928 ft 449 kts 156°
2026-04-22 10:33 17.09725 -97.14480 18365 ft 447 kts 156°
2026-04-22 10:33 17.06906 -97.13222 17774 ft 444 kts 156°
2026-04-22 10:33 17.04084 -97.11964 17310 ft 438 kts 155°
2026-04-22 10:34 17.01306 -97.10723 16936 ft 430 kts 154°
2026-04-22 10:34 16.98801 -97.09094 16544 ft 420 kts 136°
2026-04-22 10:34 16.96954 -97.06800 16258 ft 407 kts 118°
2026-04-22 10:34 16.95895 -97.04113 15993 ft 395 kts 101°
2026-04-22 10:35 16.95629 -97.01314 15714 ft 383 kts 88°
2026-04-22 10:35 16.95322 -96.98583 15445 ft 378 kts 108°
2026-04-22 10:35 16.94024 -96.96285 15344 ft 371 kts 132°
2026-04-22 10:35 16.91946 -96.94789 15258 ft 361 kts 158°
2026-04-22 10:36 16.89511 -96.94391 15201 ft 351 kts 185°
2026-04-22 10:36 16.87154 -96.94849 15149 ft 338 kts 187°
2026-04-22 10:36 16.84878 -96.94670 15016 ft 322 kts 157°
2026-04-22 10:36 16.83077 -96.93450 14986 ft 300 kts 128°
2026-04-22 10:37 16.81834 -96.91794 15034 ft 282 kts 127°
2026-04-22 10:37 16.79330 -96.88874 14674 ft 261 kts 127°
2026-04-22 10:37 16.78225 -96.87406 14290 ft 254 kts 122°
2026-04-22 10:38 16.77251 -96.85887 13807 ft 251 kts 118°
2026-04-22 10:38 16.76671 -96.84842 13469 ft 249 kts 115°
2026-04-22 10:38 16.75918 -96.83228 12930 ft 246 kts 107°
2026-04-22 10:38 16.75786 -96.81506 12440 ft 236 kts 74°
2026-04-22 10:39 16.76748 -96.79619 11852 ft 217 kts 52°
2026-04-22 10:39 16.77449 -96.78859 11316 ft 220 kts 34°
2026-04-22 10:39 16.78839 -96.78242 10716 ft 216 kts
2026-04-22 10:39 16.80312 -96.78122 10306 ft 210 kts
2026-04-22 10:40 16.81755 -96.77868 9904 ft 210 kts 13°
2026-04-22 10:40 16.83166 -96.77474 9464 ft 210 kts 15°
2026-04-22 10:40 16.84572 -96.77061 9054 ft 209 kts 15°
2026-04-22 10:40 16.85967 -96.76653 8679 ft 206 kts 15°
2026-04-22 10:41 16.87303 -96.76264 8363 ft 198 kts 15°
2026-04-22 10:41 16.88620 -96.75880 8122 ft 196 kts 15°
2026-04-22 10:41 16.89927 -96.75499 7917 ft 195 kts 15°
2026-04-22 10:41 16.91235 -96.75110 7579 ft 195 kts 16°
2026-04-22 10:42 16.92555 -96.74733 6949 ft 197 kts 13°
2026-04-22 10:42 16.93888 -96.74363 6338 ft 199 kts 15°
2026-04-22 10:42 16.95206 -96.73977 5801 ft 193 kts 16°
2026-04-22 10:42 16.96449 -96.73600 5394 ft 180 kts 16°
2026-04-22 10:43 16.97621 -96.73251 5175 ft 173 kts 14°
2026-04-22 10:43 16.98775 -96.72923 5028 ft 168 kts 16°
2026-04-22 10:43 16.99773 -96.72631 4991 ft 119 kts 15°
2026-04-22 10:43 17.00271 -96.72483 4987 ft 29 kts 19°
2026-04-22 10:44 17.00312 -96.72438 4988 ft 7 kts 80°
2026-04-22 10:44 17.00302 -96.72382 4992 ft 7 kts 103°
2026-04-22 10:44 17.00294 -96.72347 4995 ft 2 kts 105°
2026-04-22 10:44 17.00292 -96.72338 4995 ft 3 kts 105°
2026-04-22 10:45 17.00271 -96.72299 4995 ft 8 kts 152°
2026-04-22 10:45 17.00223 -96.72296 4995 ft 0 kts 191°
2026-04-22 10:45 17.00198 -96.72293 4995 ft 4 kts 150°
2026-04-22 10:46 17.00189 -96.72275 4995 ft 2 kts 105°
2026-04-22 10:46 17.00186 -96.72258 4995 ft 2 kts 103°
2026-04-22 10:46 17.00183 -96.72248 4995 ft 1 kts 104°
2026-04-22 10:46 17.00182 -96.72245 4995 ft 0 kts 104°
2026-04-22 10:47 17.00182 -96.72242 4995 ft 0 kts 105°
2026-04-22 10:47 17.00181 -96.72240 4995 ft 0 kts 105°
2026-04-22 11:09 17.00185 -96.72256 4997 ft 4 kts 105°
2026-04-22 11:09 17.00192 -96.72280 4997 ft 4 kts 97°
2026-04-22 11:09 17.00187 -96.72302 4997 ft 4 kts 38°
2026-04-22 11:10 17.00166 -96.72312 4997 ft 1 kts 15°
2026-04-22 11:10 17.00161 -96.72314 4997 ft 0 kts 15°
2026-04-22 11:15 17.00163 -96.72313 4997 ft 1 kts 16°
2026-04-22 11:15 17.00176 -96.72309 4997 ft 2 kts 16°
2026-04-22 11:15 17.00192 -96.72304 4977 ft 2 kts 16°
2026-04-22 11:15 17.00208 -96.72299 4947 ft 2 kts 16°
2026-04-22 11:16 17.00227 -96.72293 5067 ft 4 kts 14°
2026-04-22 11:16 17.00266 -96.72298 4996 ft 8 kts 334°
2026-04-22 11:16 17.00296 -96.72366 4992 ft 15 kts 285°
2026-04-22 11:16 17.00370 -96.72449 4991 ft 19 kts
2026-04-22 11:17 17.00503 -96.72412 4994 ft 21 kts 15°
2026-04-22 11:17 17.00657 -96.72369 4995 ft 25 kts 15°
2026-04-22 11:17 17.00829 -96.72347 4997 ft 25 kts 346°
2026-04-22 11:17 17.00921 -96.72336 4996 ft 12 kts 56°
2026-04-22 11:18 17.00923 -96.72296 4995 ft 0 kts 146°
2026-04-22 11:18 17.00922 -96.72296 4995 ft 0 kts 150°
2026-04-22 11:18 17.00917 -96.72295 4995 ft 2 kts 168°
2026-04-22 11:18 17.00901 -96.72295 4995 ft 2 kts 187°
2026-04-22 11:19 17.00891 -96.72298 4996 ft 1 kts 196°
2026-04-22 11:19 17.00793 -96.72327 4997 ft 43 kts 195°
2026-04-22 11:19 17.00290 -96.72475 4989 ft 106 kts 195°
2026-04-22 11:19 16.99394 -96.72736 4999 ft 159 kts 195°
2026-04-22 11:20 16.98190 -96.73091 5108 ft 192 kts 196°
2026-04-22 11:20 16.96874 -96.73380 5689 ft 203 kts 189°
2026-04-22 11:20 16.95412 -96.73671 6215 ft 218 kts 193°
2026-04-22 11:20 16.93980 -96.74073 7120 ft 209 kts 201°
2026-04-22 11:21 16.92890 -96.74963 7950 ft 197 kts 236°
2026-04-22 11:21 16.92348 -96.76284 8491 ft 203 kts 261°
2026-04-22 11:21 16.92386 -96.77751 9082 ft 202 kts 282°
2026-04-22 11:21 16.92571 -96.79223 9662 ft 206 kts 276°
2026-04-22 11:22 16.92701 -96.80703 10247 ft 208 kts 276°
2026-04-22 11:22 16.92832 -96.82216 10761 ft 211 kts 276°
2026-04-22 11:22 16.92963 -96.83748 11261 ft 213 kts 277°
2026-04-22 11:22 16.93096 -96.85308 11755 ft 217 kts 277°
2026-04-22 11:23 16.93232 -96.86890 12245 ft 220 kts 277°
2026-04-22 11:23 16.93367 -96.88495 12754 ft 223 kts 277°
2026-04-22 11:23 16.93502 -96.90115 13286 ft 225 kts 277°
2026-04-22 11:23 16.93641 -96.91756 13772 ft 228 kts 277°
2026-04-22 11:24 16.93780 -96.93417 14204 ft 231 kts 277°
2026-04-22 11:24 16.93922 -96.95101 14624 ft 233 kts 278°
2026-04-22 11:24 16.94064 -96.96770 15028 ft 234 kts 277°
2026-04-22 11:24 16.94207 -96.98473 15405 ft 236 kts 277°
2026-04-22 11:25 16.94349 -97.00189 15797 ft 237 kts 277°
2026-04-22 11:25 16.94495 -97.01918 16123 ft 243 kts 277°
2026-04-22 11:25 16.94646 -97.03709 16322 ft 252 kts 277°
2026-04-22 11:25 16.94805 -97.05592 16424 ft 269 kts 277°
2026-04-22 11:26 16.94970 -97.07607 16564 ft 287 kts 275°
2026-04-22 11:26 16.94865 -97.09756 16716 ft 304 kts 266°
2026-04-22 11:26 16.94673 -97.11994 17053 ft 314 kts 267°
2026-04-22 11:26 16.94497 -97.14330 17212 ft 331 kts 267°
2026-04-22 11:27 16.94323 -97.16795 17288 ft 349 kts 267°
2026-04-22 11:27 16.94148 -97.19391 17326 ft 367 kts 267°
2026-04-22 11:27 16.93972 -97.22081 17365 ft 385 kts 267°
2026-04-22 11:27 16.93787 -97.24932 17380 ft 401 kts 267°
2026-04-22 11:28 16.93597 -97.27880 17426 ft 414 kts 267°
2026-04-22 11:28 16.93399 -97.30936 17435 ft 427 kts 267°
2026-04-22 11:28 16.93195 -97.34077 17447 ft 439 kts 267°
2026-04-22 11:28 16.92986 -97.37304 17474 ft 448 kts 267°
2026-04-22 11:29 16.92845 -97.39456 17761 ft 447 kts 267°
2026-04-22 11:29 16.92564 -97.43769 18137 ft 451 kts 267°
2026-04-22 11:29 16.92350 -97.47039 18432 ft 452 kts 267°
2026-04-22 11:29 16.92134 -97.50323 18672 ft 454 kts 267°
2026-04-22 11:30 16.91991 -97.52516 18835 ft 455 kts 267°
2026-04-22 11:30 16.91773 -97.55814 19077 ft 456 kts 267°
2026-04-22 11:30 16.91554 -97.59123 19321 ft 457 kts 266°
2026-04-22 11:30 16.91335 -97.62441 19556 ft 458 kts 266°
2026-04-22 11:31 16.91114 -97.65766 19798 ft 460 kts 266°
2026-04-22 11:31 16.90893 -97.69101 20029 ft 461 kts 266°
2026-04-22 11:31 16.90670 -97.72438 20261 ft 462 kts 266°
2026-04-22 11:31 16.90446 -97.75795 20471 ft 463 kts 266°
2026-04-22 11:32 16.90220 -97.79167 20677 ft 465 kts 266°
2026-04-22 11:32 16.89997 -97.82493 20903 ft 465 kts 266°
2026-04-22 11:32 16.89770 -97.85870 21096 ft 467 kts 266°
2026-04-22 11:32 16.89536 -97.89250 21358 ft 466 kts 266°
2026-04-22 11:33 16.89302 -97.92630 21541 ft 467 kts 266°
2026-04-22 11:33 16.89067 -97.96020 21753 ft 468 kts 266°
2026-04-22 11:33 16.88832 -97.99415 21968 ft 469 kts 266°
2026-04-22 11:33 16.88596 -98.02809 22066 ft 468 kts 266°
2026-04-22 11:34 16.88360 -98.06207 22179 ft 468 kts 266°
2026-04-22 11:34 16.88123 -98.09602 22394 ft 469 kts 266°
2026-04-22 11:34 16.87888 -98.12958 22582 ft 470 kts 266°
2026-04-22 11:34 16.87648 -98.16371 22590 ft 471 kts 266°
2026-04-22 11:35 16.87409 -98.19779 22524 ft 470 kts 266°
2026-04-22 11:35 16.87169 -98.23183 22526 ft 470 kts 266°
2026-04-22 11:35 16.86929 -98.26585 22529 ft 469 kts 266°
2026-04-22 11:35 16.86688 -98.29985 22528 ft 470 kts 266°
2026-04-22 11:36 16.86446 -98.33393 22528 ft 470 kts 266°
2026-04-22 11:36 16.86204 -98.36790 22527 ft 470 kts 266°
2026-04-22 11:36 16.85961 -98.40197 22523 ft 471 kts 266°
2026-04-22 11:36 16.85718 -98.43602 22526 ft 471 kts 266°
2026-04-22 11:37 16.85474 -98.47014 22524 ft 471 kts 266°
2026-04-22 11:37 16.85230 -98.50410 22517 ft 467 kts 266°
2026-04-22 11:37 16.84986 -98.53790 22525 ft 465 kts 266°
2026-04-22 11:37 16.84747 -98.57113 22524 ft 465 kts 266°
2026-04-22 11:38 16.84503 -98.60479 22518 ft 465 kts 266°
2026-04-22 11:38 16.84259 -98.63852 21923 ft 464 kts 266°
2026-04-22 11:38 16.83759 -98.70730 20093 ft 472 kts 266°
2026-04-22 11:39 16.83511 -98.74124 19577 ft 465 kts 266°
2026-04-22 11:39 16.83266 -98.77473 19097 ft 458 kts 266°
2026-04-22 11:39 16.83025 -98.80760 18647 ft 452 kts 266°
2026-04-22 11:39 16.82787 -98.84012 18224 ft 445 kts 266°
2026-04-22 11:40 16.82552 -98.87208 17706 ft 439 kts 266°
2026-04-22 11:40 16.82322 -98.90335 17205 ft 435 kts 266°
2026-04-22 11:40 16.82091 -98.93466 16773 ft 429 kts 266°
2026-04-22 11:40 16.81863 -98.96562 16304 ft 424 kts 266°
2026-04-22 11:41 16.81638 -98.99608 15903 ft 418 kts 266°
2026-04-22 11:41 16.81416 -99.02611 15504 ft 413 kts 266°
2026-04-22 11:41 16.81194 -99.05595 15033 ft 409 kts 266°
2026-04-22 11:41 16.80968 -99.08616 14035 ft 423 kts 266°
2026-04-22 11:42 16.80737 -99.11683 13439 ft 422 kts 266°
2026-04-22 11:42 16.80509 -99.14718 12929 ft 418 kts 266°
2026-04-22 11:42 16.80283 -99.17707 12358 ft 416 kts 266°
2026-04-22 11:42 16.80057 -99.20701 11963 ft 410 kts 266°
2026-04-22 11:43 16.79833 -99.23666 11274 ft 412 kts 266°
2026-04-22 11:43 16.79607 -99.26643 10859 ft 407 kts 266°
2026-04-22 11:43 16.79385 -99.29566 10512 ft 400 kts 265°
2026-04-22 11:43 16.79167 -99.32436 10212 ft 393 kts 265°
2026-04-22 11:44 16.78952 -99.35243 9989 ft 383 kts 265°
2026-04-22 11:44 16.78743 -99.37981 9785 ft 374 kts 265°
2026-04-22 11:44 16.78539 -99.40652 9583 ft 364 kts 265°
2026-04-22 11:44 16.78340 -99.43250 9413 ft 354 kts 265°
2026-04-22 11:45 16.78146 -99.45775 9235 ft 345 kts 265°
2026-04-22 11:45 16.77640 -99.48169 9087 ft 334 kts 244°
2026-04-22 11:45 16.76404 -99.50150 9032 ft 320 kts 234°
2026-04-22 11:45 16.75144 -99.52028 8920 ft 310 kts 235°
2026-04-22 11:46 16.73950 -99.53825 8796 ft 300 kts 235°
2026-04-22 11:46 16.72785 -99.55585 8720 ft 288 kts 235°
2026-04-22 11:46 16.71686 -99.57290 8379 ft 281 kts 242°
2026-04-22 11:46 16.71107 -99.59207 7698 ft 275 kts 265°
2026-04-22 11:47 16.71265 -99.61144 7167 ft 263 kts 284°
2026-04-22 11:47 16.71805 -99.62926 6703 ft 252 kts 288°
2026-04-22 11:47 16.72349 -99.64617 6278 ft 240 kts 287°
2026-04-22 11:47 16.72853 -99.66239 5862 ft 229 kts 287°
2026-04-22 11:48 16.73333 -99.67783 5497 ft 217 kts 287°
2026-04-22 11:48 16.73790 -99.69240 5087 ft 206 kts 287°
2026-04-22 11:48 16.74221 -99.70627 4694 ft 194 kts 287°
2026-04-22 11:48 16.74622 -99.71910 4261 ft 184 kts 287°
2026-04-22 11:49 16.75009 -99.73151 3821 ft 176 kts 288°
2026-04-22 11:49 16.75321 -99.74338 3523 ft 168 kts 273°
2026-04-22 11:49 16.75031 -99.75533 2984 ft 186 kts 238°
2026-04-22 11:49 16.73872 -99.76410 2827 ft 232 kts 194°
2026-04-22 11:50 16.72294 -99.76853 3534 ft 232 kts 195°
2026-04-22 11:50 16.70610 -99.77296 3625 ft 260 kts 192°
2026-04-22 11:50 16.68848 -99.76947 3856 ft 269 kts 141°
2026-04-22 11:50 16.67765 -99.75283 3419 ft 281 kts 119°
2026-04-22 11:51 16.66923 -99.73630 4196 ft 255 kts 118°
2026-04-22 11:51 16.66107 -99.71867 3554 ft 285 kts 113°
2026-04-22 11:51 16.65539 -99.70183 5093 ft 200 kts 103°
2026-04-22 11:51 16.65258 -99.68784 5271 ft 216 kts 102°
2026-04-22 11:52 16.64930 -99.67083 4683 ft 255 kts 100°
2026-04-22 11:52 16.64636 -99.65262 4856 ft 254 kts 99°
2026-04-22 11:52 16.64339 -99.63403 4601 ft 272 kts 99°
2026-04-22 11:52 16.64012 -99.61371 3996 ft 285 kts 99°
2026-04-22 11:53 16.63722 -99.59429 4006 ft 254 kts 94°
2026-04-22 11:53 16.63815 -99.57716 4017 ft 227 kts 83°
2026-04-22 11:53 16.63984 -99.56141 3969 ft 215 kts 84°
2026-04-22 11:53 16.64138 -99.54552 3536 ft 228 kts 84°
2026-04-22 11:54 16.64284 -99.52957 3444 ft 211 kts 84°
2026-04-22 11:54 16.64420 -99.51412 3620 ft 217 kts 84°
2026-04-22 11:54 16.64557 -99.49825 3782 ft 221 kts 84°
2026-04-22 11:54 16.65009 -99.48309 3423 ft 221 kts 51°
2026-04-22 11:55 16.66197 -99.47453 2995 ft 205 kts
2026-04-22 11:55 16.67511 -99.47648 2962 ft 191 kts 330°
2026-04-22 11:55 16.68421 -99.48630 3047 ft 190 kts 295°
2026-04-22 11:55 16.68577 -99.49969 3033 ft 189 kts 256°
2026-04-22 11:56 16.68264 -99.51299 3029 ft 189 kts 270°
2026-04-22 11:56 16.68555 -99.52599 3006 ft 181 kts 291°
2026-04-22 11:56 16.68965 -99.53800 3099 ft 176 kts 289°
2026-04-22 11:56 16.69344 -99.55005 3065 ft 174 kts 288°
2026-04-22 11:57 16.69718 -99.56202 3020 ft 173 kts 288°
2026-04-22 11:57 16.70094 -99.57402 2906 ft 174 kts 288°
2026-04-22 11:57 16.70466 -99.58595 2724 ft 173 kts 288°
2026-04-22 11:57 16.70837 -99.59784 2535 ft 171 kts 288°
2026-04-22 11:58 16.71202 -99.60951 2333 ft 168 kts 288°
2026-04-22 11:58 16.71561 -99.62105 2131 ft 167 kts 288°
2026-04-22 11:58 16.71901 -99.63297 1970 ft 173 kts 286°
2026-04-22 11:58 16.72224 -99.64517 1737 ft 175 kts 286°
2026-04-22 11:59 16.72579 -99.65718 1477 ft 175 kts 289°
2026-04-22 11:59 16.72985 -99.66899 1233 ft 171 kts 291°
2026-04-22 11:59 16.73396 -99.68045 1020 ft 166 kts 290°
2026-04-22 11:59 16.73750 -99.69184 802 ft 164 kts 287°
2026-04-22 12:00 16.74094 -99.70312 620 ft 162 kts 288°
2026-04-22 12:00 16.74447 -99.71433 422 ft 164 kts 289°
2026-04-22 12:00 16.74818 -99.72570 248 ft 166 kts 289°
2026-04-22 12:00 16.75183 -99.73705 28 ft 160 kts 288°
2026-04-22 12:01 16.75478 -99.74634 21 ft 102 kts 288°
2026-04-22 12:01 16.75654 -99.75005 19 ft 50 kts 317°
2026-04-22 12:01 16.75870 -99.75126 20 ft 28 kts 338°
2026-04-22 12:01 16.75996 -99.75207 20 ft 14 kts 277°
2026-04-22 12:02 16.75969 -99.75295 20 ft 13 kts 253°
2026-04-22 12:02 16.75981 -99.75389 21 ft 14 kts 287°
2026-04-22 12:02 16.76005 -99.75463 21 ft 0 kts 288°
2026-04-22 12:02 16.76008 -99.75470 22 ft 2 kts 288°
2026-04-22 12:03 16.76013 -99.75488 20 ft 3 kts 288°
2026-04-22 12:03 16.76021 -99.75508 22 ft 3 kts 300°
2026-04-22 12:03 16.76031 -99.75515 21 ft 2 kts 335°
2026-04-22 12:03 16.76044 -99.75517 20 ft 2 kts 360°
2026-04-22 12:04 16.76062 -99.75513 20 ft 3 kts 19°
2026-04-22 12:04 16.76085 -99.75505 20 ft 4 kts 19°
2026-04-22 12:04 16.76109 -99.75495 19 ft 2 kts 19°
2026-04-22 12:04 16.76117 -99.75493 19 ft 1 kts 19°
2026-04-22 12:05 16.76122 -99.75491 19 ft 0 kts 18°
2026-04-22 12:05 16.76124 -99.75490 19 ft 0 kts 18°
2026-04-22 12:05 16.76125 -99.75490 19 ft 0 kts 18°